(192) Nausikaa
ephemeris date magn radius delta ra dec elong phase
Today16 Sep 202512.72.668 AU3.128 AU14h51m-22°24'54.2°17.8°
Opposition30 Sep 20268.41.816 AU0.817 AU00h17m+08°42'173.8°3.4°
(192) Nausikaa - 2025-09-16
astro.vanbuitenen.nl


 
-1 year
-1 month
-1 day
Now
+1 day
+1 month
+1 year

The interactive orbit chart above shows the body's path through the solar system and its position at the given date. Green and blue lines are shown perpendicular to the ecliptic plane: Green if the path is above the ecliptic plane, blue if it is below. (Left-click and drag to rotate the view; Right-click and drag to move the view; Use scroll wheel to zoom in our out.)

The orbital elements of Nausikaa are:

            e (Eccentricity)                : 0.2453786
            a (Semimajor axis)              : 2.4031767
            i (Inclination)                 : 6.79566
            Ω (Longitude of ascending node) : 343.08236
            ω (Argument of perihelion)      : 30.58684
            M (Mean anomaly)                : 220.45739
            Epoch                           : 2025 May 05

            L (Longitude of perihelion)     : 13.49255
            B (Latitude of perihelion)      : 3.45191
            P (Orbital period in years)     : 3.73            
        

The light curve chart below shows the estimated development of the minor planet's magnitude.


The all-sky chart below shows the path of the minor planet over the same period as the light curve. The current position is marked yellow.





The following chart shows the path of the minor planet in the next few days. The field of view is optimized for (~10x50) binoculars and finderscopes. A more printer-friendly version of the same chart can be found below.




Ephemerides:
Date       Time       RA (2000)    DEC (2000)    delta   radius  elong  phase   PA    magn
2025-09-16 00:00 UT   14 51 15.1   -22 24 46     3.128    2.668   54.2   17.8   111   12.7 
2025-09-16 00:41 UT   14 51 17.6   -22 24 55     3.128    2.668   54.2   17.8   111   12.7 
2025-09-17 00:00 UT   14 52 42.3   -22 29 50     3.137    2.666   53.6   17.7   111   12.7 
2025-09-18 00:00 UT   14 54 10.1   -22 34 55     3.145    2.663   53.0   17.5   111   12.7 
2025-09-19 00:00 UT   14 55 38.6   -22 40 00     3.153    2.661   52.3   17.4   111   12.7 
2025-09-20 00:00 UT   14 57 07.6   -22 45 06     3.162    2.659   51.7   17.2   111   12.7 
2025-09-21 00:00 UT   14 58 37.3   -22 50 12     3.170    2.657   51.1   17.1   111   12.7 
2025-09-22 00:00 UT   15 00 07.6   -22 55 19     3.178    2.654   50.5   17.0   111   12.7 
2025-09-23 00:00 UT   15 01 38.5   -23 00 26     3.186    2.652   49.9   16.8   111   12.7 
2025-09-24 00:00 UT   15 03 10.0   -23 05 33     3.194    2.650   49.3   16.7   111   12.7 
2025-09-25 00:00 UT   15 04 42.0   -23 10 41     3.201    2.648   48.6   16.5   111   12.7 
2025-09-26 00:00 UT   15 06 14.7   -23 15 48     3.209    2.645   48.0   16.4   111   12.7 
2025-09-27 00:00 UT   15 07 48.0   -23 20 55     3.216    2.643   47.4   16.2   111   12.7 
2025-09-28 00:00 UT   15 09 21.8   -23 26 02     3.224    2.641   46.8   16.1   111   12.7 
2025-09-29 00:00 UT   15 10 56.2   -23 31 09     3.231    2.639   46.2   15.9   111   12.7 
2025-09-30 00:00 UT   15 12 31.2   -23 36 15     3.238    2.636   45.6   15.8   111   12.7 
2025-10-01 00:00 UT   15 14 06.7   -23 41 21     3.245    2.634   45.0   15.6   111   12.7 
2025-10-02 00:00 UT   15 15 42.8   -23 46 26     3.252    2.632   44.4   15.4   111   12.7 
2025-10-03 00:00 UT   15 17 19.4   -23 51 31     3.259    2.630   43.8   15.3   111   12.7 
2025-10-04 00:00 UT   15 18 56.6   -23 56 35     3.266    2.627   43.2   15.1   111   12.7 
2025-10-05 00:00 UT   15 20 34.4   -24 01 38     3.272    2.625   42.6   14.9   111   12.7 
2025-10-06 00:00 UT   15 22 12.7   -24 06 40     3.279    2.623   42.0   14.8   111   12.7 
2025-10-07 00:00 UT   15 23 51.5   -24 11 41     3.285    2.620   41.4   14.6   111   12.7 
2025-10-08 00:00 UT   15 25 30.9   -24 16 41     3.291    2.618   40.8   14.4   111   12.7 
2025-10-09 00:00 UT   15 27 10.8   -24 21 40     3.298    2.616   40.2   14.3   111   12.7 


    Terminology:
            
    delta:  distance between minor planet and earth in AU
    radius: distance between minor planet and sun in AU
    magn:   magnitude (brightness) estimate    
    ra:     right ascension in hours (24h = 360deg)
    dec:    declination in degrees
    elong:  elongation in degrees (angle sun-earth-minor planet)    
    phase:  phase angle in degrees (angle sun-minor planet-earth)        
    AU:     Astronomical Unit (mean distance between earth and sun: 149597870.7 km
    

Orbital elements provided by the MPC (Minor Planet Center).
Calculations by a modified version of AAPlus, a C# implementation of the AA+ project by PJ Naughter from the algorithms presented in the book "Astronomical Algorithms" by Jean Meeus.
NGC2000 dso catalog and star labels from VizieR as provided by the Strasbourg astronomical Data Center.
Tycho2 catalog from the ESO archive.